| time (UTC) | temp F | wind direction | speed knots | gust knots | rain 1hr in | rain 24hr in | rain mn in | humidity % | barometer mb |
| 20260507171531 | 61 | 152 | 2.6 | 7.8 | 0.00 | 0.00 | 0.00 | 45 | 1021.0 |
| 20260507170022 | 59 | 191 | 4.3 | 11.3 | 0.00 | 0.00 | 0.00 | 47 | 1021.3 |
| 20260507164530 | 58 | 195 | 4.3 | 9.6 | 0.00 | 0.00 | 0.00 | 49 | 1021.6 |
| 20260507163013 | 58 | 147 | 2.6 | 7.0 | 0.00 | 0.00 | 0.00 | 50 | 1021.8 |
| 20260507161515 | 56 | 160 | 4.3 | 8.7 | 0.00 | 0.00 | 0.00 | 53 | 1022.0 |
| 20260507160022 | 55 | 227 | 5.2 | 7.8 | 0.00 | 0.00 | 0.00 | 54 | 1022.2 |
| 20260507154522 | 54 | 221 | 2.6 | 6.1 | 0.00 | 0.00 | 0.00 | 56 | 1022.3 |
| 20260507153028 | 53 | 60 | 2.6 | 7.0 | 0.00 | 0.00 | 0.00 | 57 | 1022.4 |
| 20260507151513 | 53 | 278 | 0.9 | 4.3 | 0.00 | 0.00 | 0.00 | 59 | 1022.4 |
| 20260507150018 | 51 | 236 | 0.0 | 1.7 | 0.00 | 0.00 | 0.00 | 63 | 1022.6 |
| 20260507144534 | 48 | 22 | 0.0 | 0.0 | 0.00 | 0.00 | 0.00 | 71 | 1022.8 |
| 20260507141527 | 44 | 354 | 0.0 | 1.7 | 0.00 | 0.00 | 0.00 | 78 | 1023.1 |
| 20260507140020 | 43 | 354 | 0.9 | 3.5 | 0.00 | 0.00 | 0.00 | 81 | 1023.3 |
| 20260507134524 | 42 | 345 | 0.0 | 2.6 | 0.00 | 0.00 | 0.00 | 83 | 1023.4 |
| 20260507133025 | 41 | 20 | 0.9 | 2.6 | 0.00 | 0.00 | 0.00 | 84 | 1023.4 |
| 20260507131534 | 40 | 325 | 0.0 | 2.6 | 0.00 | 0.00 | 0.00 | 84 | 1023.4 |
| 20260507130027 | 39 | 315 | 0.9 | 3.5 | 0.00 | 0.00 | 0.00 | 84 | 1023.4 |
| 20260507124522 | 38 | 339 | 1.7 | 2.6 | 0.00 | 0.00 | 0.00 | 84 | 1023.3 |
| 20260507123005 | 38 | 1 | 0.9 | 2.6 | 0.00 | 0.00 | 0.00 | 83 | 1023.1 |
| 20260507121506 | 38 | 311 | 0.9 | 4.3 | 0.00 | 0.00 | 0.00 | 82 | 1023.1 |
| 20260507120034 | 39 | 343 | 1.7 | 4.3 | 0.00 | 0.00 | 0.00 | 82 | 1023.0 |
| 20260507114514 | 39 | 351 | 1.7 | 4.3 | 0.00 | 0.00 | 0.00 | 82 | 1023.0 |
| 20260507113034 | 39 | 337 | 2.6 | 4.3 | 0.00 | 0.00 | 0.00 | 82 | 1023.1 |
| 20260507111507 | 40 | 338 | 2.6 | 4.3 | 0.00 | 0.00 | 0.00 | 81 | 1023.0 |
| 20260507101514 | 41 | 335 | 1.7 | 4.3 | 0.00 | 0.00 | 0.00 | 79 | 1022.7 |
| 20260507100010 | 41 | 347 | 1.7 | 4.3 | 0.00 | 0.00 | 0.00 | 78 | 1022.7 |
| 20260507094516 | 42 | 331 | 2.6 | 4.3 | 0.00 | 0.00 | 0.00 | 77 | 1022.5 |
| 20260507080021 | 45 | 316 | 1.7 | 4.3 | 0.00 | 0.00 | 0.00 | 70 | 1022.4 |
| 20260507074529 | 46 | 321 | 3.5 | 7.8 | 0.00 | 0.00 | 0.00 | 70 | 1022.4 |
| 20260507073015 | 47 | 326 | 4.3 | 8.7 | 0.00 | 0.00 | 0.00 | 68 | 1022.5 |
| 20260507071518 | 47 | 310 | 4.3 | 7.8 | 0.00 | 0.00 | 0.00 | 64 | 1022.4 |
| 20260507070022 | 48 | 309 | 4.3 | 8.7 | 0.00 | 0.00 | 0.00 | 63 | 1022.3 |
| 20260507064524 | 48 | 318 | 3.5 | 7.8 | 0.00 | 0.00 | 0.00 | 62 | 1022.1 |
| 20260507063013 | 48 | 323 | 2.6 | 6.1 | 0.00 | 0.00 | 0.00 | 63 | 1021.8 |
| 20260507061518 | 48 | 113 | 2.6 | 5.2 | 0.00 | 0.00 | 0.00 | 63 | 1021.1 |
| 20260507060022 | 47 | 45 | 2.6 | 7.8 | 0.00 | 0.00 | 0.00 | 63 | 1021.2 |
| 20260507054505 | 47 | 62 | 2.6 | 11.3 | 0.00 | 0.00 | 0.00 | 65 | 1021.1 |
| 20260507053011 | 46 | 40 | 7.0 | 16.5 | 0.00 | 0.00 | 0.00 | 66 | 1021.3 |
| 20260507051516 | 46 | 35 | 9.6 | 17.4 | 0.00 | 0.00 | 0.00 | 66 | 1021.4 |
| 20260507050020 | 46 | 25 | 7.8 | 14.8 | 0.00 | 0.00 | 0.00 | 66 | 1021.5 |
| 20260507044508 | 46 | 30 | 8.7 | 13.9 | 0.00 | 0.00 | 0.00 | 65 | 1021.5 |
| 20260507043009 | 46 | 52 | 6.1 | 13.0 | 0.00 | 0.00 | 0.00 | 66 | 1021.6 |
| 20260507041515 | 46 | 22 | 5.2 | 15.6 | 0.00 | 0.00 | 0.00 | 66 | 1021.1 |
| 20260507040017 | 46 | 37 | 9.6 | 16.5 | 0.00 | 0.00 | 0.00 | 65 | 1020.8 |
| 20260507034504 | 47 | 288 | 7.0 | 22.6 | 0.00 | 0.00 | 0.00 | 64 | 1020.9 |
| 20260507033006 | 47 | 11 | 14.8 | 26.1 | 0.00 | 0.00 | 0.00 | 64 | 1018.9 |
| 20260507031510 | 46 | 23 | 15.6 | 25.2 | 0.00 | 0.00 | 0.00 | 64 | 1018.7 |
| 20260507030014 | 47 | 32 | 20.0 | 27.8 | 0.00 | 0.00 | 0.00 | 64 | 1018.1 |
| 20260507024522 | 47 | 30 | 12.2 | 24.3 | 0.00 | 0.00 | 0.00 | 64 | 1018.1 |
| 20260507023005 | 48 | 18 | 13.9 | 23.5 | 0.00 | 0.00 | 0.00 | 64 | 1017.8 |
| 20260507021506 | 49 | 3 | 11.3 | 26.1 | 0.00 | 0.00 | 0.00 | 64 | 1017.3 |
| 20260507020012 | 51 | 11 | 20.0 | 29.5 | 0.00 | 0.00 | 0.00 | 61 | 1015.8 |
| 20260507014520 | 54 | 1 | 15.6 | 26.9 | 0.00 | 0.00 | 0.00 | 57 | 1015.8 |
| 20260507013022 | 60 | 1 | 20.0 | 29.5 | 0.00 | 0.00 | 0.00 | 45 | 1015.4 |
| 20260507011508 | 66 | 43 | 20.9 | 28.7 | 0.00 | 0.00 | 0.00 | 35 | 1014.0 |
| 20260507004514 | 74 | 309 | 4.3 | 8.7 | 0.00 | 0.00 | 0.00 | 17 | 1012.1 |
| 20260507003019 | 74 | 264 | 2.6 | 7.0 | 0.00 | 0.00 | 0.00 | 18 | 1011.9 |
| 20260506233019 | 75 | 239 | 7.0 | 10.4 | 0.00 | 0.00 | 0.00 | 17 | 1011.6 |
| 20260506231522 | 75 | 283 | 2.6 | 10.4 | 0.00 | 0.00 | 0.00 | 17 | 1011.6 |
| 20260506230028 | 75 | 233 | 2.6 | 10.4 | 0.00 | 0.00 | 0.00 | 18 | 1011.6 |
| 20260506224522 | 76 | 284 | 4.3 | 8.7 | 0.00 | 0.00 | 0.00 | 17 | 1011.5 |
| 20260506223016 | 73 | 276 | 3.5 | 10.4 | 0.00 | 0.00 | 0.00 | 18 | 1011.5 |
| 20260506221520 | 75 | 265 | 6.1 | 10.4 | 0.00 | 0.00 | 0.00 | 18 | 1011.6 |
| 20260506220033 | 75 | 288 | 7.0 | 13.9 | 0.00 | 0.00 | 0.00 | 18 | 1011.9 |
| 20260506214529 | 75 | 228 | 2.6 | 11.3 | 0.00 | 0.00 | 0.00 | 18 | 1011.9 |
| 20260506213014 | 75 | 307 | 6.1 | 10.4 | 0.00 | 0.00 | 0.00 | 17 | 1011.9 |
| 20260506211522 | 75 | 302 | 6.1 | 15.6 | 0.00 | 0.00 | 0.00 | 17 | 1012.2 |
| 20260506210022 | 75 | 228 | 7.8 | 14.8 | 0.00 | 0.00 | 0.00 | 17 | 1012.4 |
| 20260506204526 | 76 | 232 | 6.1 | 16.5 | 0.00 | 0.00 | 0.00 | 16 | 1012.7 |
| 20260506203014 | 75 | 293 | 4.3 | 15.6 | 0.00 | 0.00 | 0.00 | 17 | 1012.8 |
| 20260506201519 | 74 | 255 | 7.0 | 16.5 | 0.00 | 0.00 | 0.00 | 17 | 1013.0 |
| 20260506200004 | 74 | 237 | 7.0 | 14.8 | 0.00 | 0.00 | 0.00 | 17 | 1013.0 |
| 20260506194508 | 73 | 291 | 8.7 | 13.0 | 0.00 | 0.00 | 0.00 | 18 | 1013.0 |
| 20260506193012 | 73 | 236 | 8.7 | 16.5 | 0.00 | 0.00 | 0.00 | 17 | 1013.3 |
| 20260506191516 | 73 | 257 | 6.1 | 13.0 | 0.00 | 0.00 | 0.00 | 18 | 1013.6 |
| 20260506190005 | 72 | 248 | 7.8 | 13.0 | 0.00 | 0.00 | 0.00 | 17 | 1013.8 |
| 20260506184506 | 71 | 227 | 6.1 | 15.6 | 0.00 | 0.00 | 0.00 | 18 | 1014.0 |
| 20260506183008 | 71 | 274 | 7.8 | 18.2 | 0.00 | 0.00 | 0.00 | 16 | 1014.2 |
| 20260506181516 | 71 | 254 | 7.0 | 17.4 | 0.00 | 0.00 | 0.00 | 17 | 1014.3 |
| 20260506180021 | 71 | 226 | 7.0 | 15.6 | 0.00 | 0.00 | 0.00 | 19 | 1014.5 |
| 20260506174504 | 67 | 170 | 4.3 | 9.6 | 0.00 | 0.00 | 0.00 | 37 | 1014.6 |
| 20260506173008 | 67 | 27 | 0.9 | 5.2 | 0.00 | 0.00 | 0.00 | 37 | 1015.0 |